Location: Unspecified
(0.0000°N, 0.0000°E)
Time: 16:00:34
(UTC+00:00)

Tiangong 1 - Pass Details

Date: 14 January 2017
Orbit: 344 x 365 km, 42.8° (Epoch: 18 January)

Event Time Altitude Azimuth Distance (km) Brightness Sun altitude
Rises 18:57:12 0° 196° (SSW) 2,170 5.4 -11.2°
Reaches altitude 10° 19:00:04 10° 165° (SSE) 1,318 3.9 -11.8°
Maximum altitude 19:01:30 13° 136° (SE) 1,162 3.3 -12.2°
Enters shadow 19:02:18 12° 119° (ESE) 1,208 3.2 -12.3°
